Home   Weather   Mazari Sharif   Past weeks

Flag for Afghanistan Past Weather in Mazari Sharif, Afghanistan — Yesterday and Last 2 Weeks

Now
12 °F

Ice fog.


Feels Like: 12 °F
Forecast: 38 / 53 °F
Wind: 2 mph from Northeast

Location: Termez Airport

Current Time: Dec 11, 2016 at 4:56:51 am

Latest Report: Dec 11, 2016 at 4:00 am


Visibility: 0 mi

Pressure: 30.21 "Hg

Humidity: 92%

Dew Point: 10 °F

Location of Mazari SharifLocation

Past Weather in Mazari Sharif — Graph

°F

Mazari Sharif Temperature Yesterday

Maximum temperature yesterday: 30 °F (at 11:30 am)
Minimum temperature yesterday: 21 °F (at 10:00 pm)
Average temperature yesterday: 26 °F

High & Low Weather Summary for the Past Weeks

 TemperatureHumidityPressure
High75 °F (Dec 4, 2:00 pm)93% (Nov 26, 5:30 am)30.77 "Hg (Nov 26, 5:30 am)
Low14 °F (Nov 27, 5:30 am)23% (Dec 2, 1:30 pm)29.98 "Hg (Dec 6, 11:30 pm)
Average44 °F70%30.21 "Hg
* Reported Nov 26 3:30 am — Dec 11 3:30 am, Mazari Sharif, Weather by CustomWeather, © 2016

Note: Actual official high and low records may vary slightly from our data, if they occured in-between our weather recording intervals... More about our weather records

Advertising

Mazari Sharif Weather History for the Previous 24 Hours

Scroll right to see more
 ConditionsComfort  
Time TempWeatherWind HumidityBarometerVisibility
3:30 am
Sun, Dec 11
14 °FIce fog.2 mph85%30.21 "Hg0 mi
3:00 am14 °FIce fog.2 mph85%30.21 "Hg0 mi
2:30 am16 °FIce fog.2 mph86%30.21 "Hg0 mi
2:00 am14 °FIce fog.3 mph85%30.21 "Hg0 mi
1:30 am16 °FIce fog.3 mph93%30.21 "Hg0 mi
1:00 am18 °FIce fog.2 mph86%30.21 "Hg0 mi
12:30 am18 °FIce fog.2 mph86%30.21 "Hg0 mi
12:00 am19 °FIce fog.3 mph93%30.21 "Hg0 mi
11:30 pm
Sat, Dec 10
21 °FIce fog.5 mph86%30.24 "Hg0 mi
11:00 pm21 °FIce fog.3 mph93%30.24 "Hg0 mi
10:30 pm21 °FIce fog.1 mph93%30.24 "Hg1 mi
10:00 pm21 °FIce fog.3 mph93%30.24 "Hg2 mi
9:30 pm23 °FIce fog.2 mph86%30.24 "Hg2 mi
9:00 pm23 °FIce fog.No wind86%30.24 "Hg2 mi
8:30 pm23 °FIce fog.2 mph93%30.24 "Hg2 mi
8:00 pm23 °FIce fog.3 mph93%30.24 "Hg3 mi
7:30 pm23 °FIce fog.3 mph93%30.24 "Hg3 mi
7:00 pm23 °FPassing clouds.6 mph93%30.24 "Hg4 mi
6:30 pm25 °FPassing clouds.5 mph86%30.24 "Hg4 mi
6:00 pm25 °FPassing clouds.6 mph93%30.24 "Hg4 mi
5:30 pm25 °FIce fog.6 mph93%30.21 "Hg3 mi
5:00 pm27 °FMostly cloudy.5 mph93%30.24 "Hg4 mi
4:30 pm27 °FMostly cloudy.3 mph93%30.24 "Hg4 mi
4:00 pm27 °FLow clouds.6 mph93%30.21 "Hg5 mi
3:30 pm27 °FLow clouds.6 mph93%30.21 "Hg4 mi
3:00 pm28 °FLow clouds.6 mph86%30.21 "Hg4 mi
2:30 pm28 °FPartly sunny.3 mph93%30.18 "Hg4 mi
2:00 pm28 °FPartly sunny.5 mph93%30.18 "Hg4 mi
1:30 pm28 °FPartly sunny.6 mph93%30.15 "Hg5 mi
1:00 pm30 °FPartly sunny.No wind86%30.18 "Hg5 mi
12:30 pm30 °FPartly sunny.No wind86%30.18 "Hg5 mi
12:00 pm30 °FMostly cloudy.3 mph93%30.18 "Hg5 mi
11:30 am30 °FLow clouds.5 mph86%30.18 "Hg4 mi
11:00 am28 °FMostly cloudy.3 mph93%30.18 "Hg4 mi
10:30 am28 °FSnow flurries. Mostly cloudy.6 mph86%30.18 "Hg4 mi
10:00 am27 °FSnow flurries. Mostly cloudy.6 mph93%30.18 "Hg4 mi
9:30 am27 °FSnow flurries. Ice fog.6 mph93%30.15 "Hg3 mi
9:00 am27 °FSnow flurries. Ice fog.7 mph93%30.15 "Hg3 mi
8:30 am27 °FSnow flurries. Ice fog.6 mph93%30.12 "Hg3 mi
8:00 am27 °FLight snow. Overcast.5 mph93%30.12 "Hg4 mi
7:30 am27 °FSnow showers. Mostly cloudy.5 mph86%30.12 "Hg1 mi
7:00 am27 °FSnow showers. Mostly cloudy.5 mph86%30.09 "Hg1 mi
6:30 am27 °FSnow showers. Mostly cloudy.3 mph86%30.09 "Hg1 mi
6:00 am27 °FHeavy snow. Mostly cloudy.5 mph86%30.09 "Hg1 mi
5:30 am27 °FHeavy snow. Mostly cloudy.3 mph86%30.09 "Hg1 mi
5:00 am27 °FHeavy snow. Mostly cloudy.6 mph93%30.09 "Hg1 mi
4:30 am27 °FHeavy snow. Mostly cloudy.2 mph93%30.09 "Hg1 mi
4:00 am27 °FHeavy snow. Mostly cloudy.1 mph93%30.09 "Hg0 mi
Weather by CustomWeather, © 2016

See weather overviewHow to use our weather pages